Regional Weather Roundup
Issued by NWS Newport/Morehead, NC

Home | Current Version | Previous Version | Text Only | Print | Product List | Glossary On
Versions: 1 2 3 4 5 6 7 8 9 10 11 12 13 14 15 16 17 18 19 20 21 22 23 24 25 26 27 28 29 30 31 32 33 34 35 36 37 38 39 40 41 42 43 44 45 46 47 48 49 50
052
ASUS42 KMHX 242125
RWRMHX
WEATHER ROUNDUP FOR EASTERN NORTH CAROLINA
NATIONAL WEATHER SERVICE NEWPORT/MOREHEAD CITY NC
500 PM EDT MON JUL 24 2017

NOTE: "FAIR" INDICATES FEW OR NO CLOUDS BELOW 12,000 FEET
WITH NO SIGNIFICANT WEATHER AND/OR OBSTRUCTIONS TO VISIBILITY

NCZ015>017-031-032-045>047-102-103-242200-
NORTH COAST

CITY           SKY/WX    TMP DP  RH WIND       PRES   REMARKS
EDENTON        SUNNY     89  76  66 CALM      29.88S HX 101
ELIZABETH CITY MOSUNNY   87  77  72 SW12      29.87F
KITTY HAWK     PTCLDY    85  74  68 W5        29.86F
MANTEO         MOSUNNY   86  74  65 W8        29.88S

$$

NCZ045>047-081-094-103-104-242200-
CENTRAL COAST

CITY           SKY/WX    TMP DP  RH WIND       PRES   REMARKS
FRISCO         CLOUDY    82  75  79 SW12G18   29.90F

$$

NCZ095-097-098-100-101-242200-
SOUTHERN COAST

CITY           SKY/WX    TMP DP  RH WIND       PRES   REMARKS
BEAUFORT       PTSUNNY   85  79  82 SW15      29.91S
CEDAR ISLAND   NOT AVBL
JACKSONVILLE   CLOUDY    89  77  67 W8        29.89F HX 101
PINEY ISLAND   CLOUDY   N/A N/A N/A SW18      29.89F
WILMINGTON     PTSUNNY   90  75  61 W13       29.90F HX 100


$$

NCZ011>013-027>030-043-044-078>080-089-090>093-098-242200-
COASTAL PLAIN

CITY           SKY/WX    TMP DP  RH WIND       PRES   REMARKS
AHOSKIE          N/A     85  76  74 S5        29.87F
CLINTON        MOSUNNY   89  75  65 SW6       29.90F
ELIZABETHTOWN  NOT AVBL
GOLDSBORO      MOSUNNY   91  75  59 SW8       29.88F HX 101
GREENVILLE     SUNNY     90  73  58 W5        29.90F
HAVELOCK       NOT AVBL
KENANSVILLE    CLOUDY    88  73  62 SW5       29.90S
KINSTON        MOSUNNY   91  72  52 SW7       29.89F
NEW BERN       CLOUDY    90  75  61 W12       29.89F HX 100
RICHLANDS      CLOUDY    89  76  65 SW8       29.90F HX 100
ROCKY MOUNT    SUNNY     90  74  59 W7        29.88F
WASHINGTON     MOSUNNY   88  73  62 SW8       29.88S
WHITEVILLE     LGT RAIN  83  78  82 NW3       29.91R

$$

AMZ130-135-150-152-154-156-158-170-250-252-270-ANZ085-086-088-633-658-670-242200-
MARINE OBSERVATIONS

STATION/POSITION TIME  TEMP    WIND        PRES    WAVE   SWELL
                       AIR SEA DIR/SP/G            HT/PER HT/PER
                 (UTC) (F)     (DEG/KT/KT) (MB)    (FT/S) (FT/S)
CHESAPEAKE LIGHT NOT AVBL
64 E VA BEACH    2050   80 79  220/ 10/ 12 1012.2    4/ 6   3/ 6
DUCK             2100   86 62  240/ 10/ 15 1011.1
2 E DUCK         2100      73                N/A     2/ 7
OREGON INLET     2100   83 83  190/ 18/ 23 1011.7
13E OREGON INLT  2048      69                N/A     5/ 7   2/10
HATTERAS CG      2100   81 78  220/ 10/ 14 1012.5
DIAMOND BUOY     2050   83 84  220/ 19/ 23 1012.5    7/ 7
CAPE LOOKOUT     2100   82     220/ 10/ 13 1012.7
BEAUFORT LAB     2100   83 82  210/ 13/ 15 1012.2
30 SE NEW RVR IN 2108   82 83  240/ 16/ 21 1013.2
30 SE NEW RVR IN 2043      82                N/A     6/ 7
27 SE WRIGHTSVLE 2108   82 83  220/ 16/ 19 1013.1
5 SE WRIGHTSVLE  2108   82 81  200/ 14/ 21 1012.9
225 S CAPE HAT   2050   80 83  270/ 16/ 17 1018.3    6/ 6   3/ 8
41 SE CHARLESTON 2110   82 83  220/ 16/ 19 1014.0

$$




USA.gov is the U.S. government's official web portal to all federal, state and local government web resources and services.